[[{"header":{"parameterUnit":"m.s-1","parameterCategory":1,"la1":30.2992,"la2":30.254,"lo1":-89.0895,"lo2":-89.0443,"dy":0.0025,"dx":0.0025,"nx":19,"ny":19,"refTime":"2026-05-05T03:00:00:Z","depth":0,"parameterNumber":2,"parameterNumberName":"U-component_of_WINDS"},"data":[0,0,0,-0.291,-0.2911,-0.2963,-0.2964,-0.3021,-0.3021,0,0,0,0,0,0,0,0,0,0,0,-0.2888,-0.2888,-0.291,-0.2911,-0.2963,-0.2964,-0.3021,-0.3021,0,0,0,0,0,0,0,0,0,0,0,-0.2888,-0.2888,-0.2888,-0.2911,-0.2963,-0.2964,-0.302,-0.2985,0,0,0,0,0,0,0,0,0,0,-0.2936,-0.2909,-0.2888,-0.2888,-0.2912,-0.2963,-0.2964,-0.2983,-0.2987,-0.2993,0,-0.2995,0,-0.3009,-0.3024,-0.3024,0,0,0,-0.2916,-0.2905,-0.2926,-0.2888,-0.2912,-0.2963,-0.2941,-0.2985,-0.299,-0.2998,-0.2996,-0.2999,-0.301,-0.3024,-0.3025,-0.3039,-0.3039,0,0,-0.2914,-0.2894,-0.2923,-0.2928,-0.2918,-0.294,-0.2943,-0.2988,-0.2985,-0.2996,-0.3,-0.3011,-0.3025,-0.3025,-0.304,-0.3039,0,0,0,-0.2902,-0.2892,-0.2911,-0.2925,-0.2935,-0.2941,-0.2945,-0.2983,-0.2991,-0.3001,-0.3011,-0.3025,-0.3026,-0.304,-0.3039,-0.3012,0,0,0,-0.29,-0.2885,-0.2909,-0.2898,-0.2934,-0.296,-0.2939,-0.2988,-0.2994,-0.3011,-0.3025,-0.3026,-0.304,-0.304,-0.3013,-0.3002,0,0,0,-0.2887,-0.2883,-0.2889,-0.2897,-0.2918,-0.296,-0.297,-0.299,-0.3,-0.3024,-0.3026,-0.304,-0.304,-0.3014,-0.3004,-0.3001,0,0,0,-0.2867,-0.2863,-0.2888,-0.2887,-0.2918,-0.2942,-0.297,-0.2989,-0.3006,-0.3025,-0.304,-0.304,-0.3015,-0.3005,-0.3002,-0.2995,-0.299,0,0,-0.2851,-0.286,-0.2862,-0.2885,-0.29,-0.2935,-0.2947,-0.2981,-0.3002,-0.3026,-0.3027,-0.3013,-0.3004,-0.3001,-0.2969,-0.2965,0,0,0,-0.285,-0.2851,-0.2859,-0.2874,-0.2901,-0.2923,-0.2958,-0.2971,-0.2993,-0.301,-0.3011,-0.3007,-0.3006,-0.3003,-0.3,-0.3001,-0.3037,-0.3037,-0.3037,-0.2798,-0.2825,-0.283,-0.2863,-0.2877,-0.2914,-0.2929,-0.2954,-0.2976,-0.2976,-0.2983,-0.296,-0.2956,-0.2954,-0.2955,-0.2981,-0.2981,-0.2981,-0.2981,-0.2777,-0.2783,-0.2814,-0.2829,-0.2857,-0.2871,-0.2907,-0.2922,-0.294,-0.2956,-0.2957,-0.2973,-0.2949,-0.2951,-0.2979,-0.298,-0.298,-0.298,-0.298,-0.2747,-0.2754,-0.277,-0.2797,-0.2814,-0.2848,-0.2864,-0.2889,-0.2914,-0.2914,-0.2926,-0.2926,-0.293,-0.2918,-0.2918,-0.2918,-0.2918,-0.2917,-0.2917,-0.2709,-0.2728,-0.2738,-0.2766,-0.278,-0.2802,-0.284,-0.2855,-0.2878,-0.2896,-0.2896,-0.2919,-0.2941,-0.2946,-0.2916,-0.2917,-0.2917,-0.2917,-0.2917,-0.2679,-0.269,-0.2704,-0.2719,-0.2755,-0.2771,-0.2804,-0.2832,-0.2849,-0.2856,-0.2879,-0.2891,-0.2903,-0.2906,-0.291,-0.2873,-0.2873,-0.2873,-0.2873,-0.2653,-0.2662,-0.2683,-0.2704,-0.2728,-0.2759,-0.2777,-0.2807,-0.284,-0.2852,-0.2861,-0.2869,-0.2871,-0.2882,-0.2885,-0.289,-0.2848,-0.2848,-0.2848,-0.2637,-0.2649,-0.2658,-0.2689,-0.272,-0.2746,-0.2764,-0.2788,-0.2828,-0.2848,-0.2862,-0.2863,-0.2877,-0.288,-0.2899,-0.2904,-0.2913,0,0]},{"header":{"parameterUnit":"m.s-1","parameterCategory":1,"la1":30.2992,"la2":30.254,"lo1":-89.0895,"lo2":-89.0443,"dy":0.0025,"dx":0.0025,"nx":19,"ny":19,"refTime":"2026-05-05T03:00:00:Z","depth":0,"parameterNumber":3,"parameterNumberName":"V-component_of_WINDS"},"data":[0,0,0,6.2755,6.276,6.2986,6.2986,6.3267,6.327,0,0,0,0,0,0,0,0,0,0,0,6.2688,6.269,6.2755,6.276,6.2985,6.2986,6.3267,6.327,0,0,0,0,0,0,0,0,0,0,0,6.2687,6.269,6.2692,6.2761,6.2985,6.2986,6.3266,6.3098,0,0,0,0,0,0,0,0,0,0,6.288,6.282,6.2689,6.2692,6.2763,6.2985,6.2987,6.309,6.3108,6.3164,0,6.3217,0,6.3248,6.3289,6.329,0,0,0,6.2759,6.2804,6.2865,6.2693,6.2765,6.2985,6.2884,6.31,6.3121,6.3188,6.3221,6.3231,6.3253,6.329,6.3292,6.3622,6.3623,0,0,6.2747,6.2728,6.2851,6.2879,6.2848,6.2876,6.2891,6.3113,6.3146,6.3222,6.3238,6.3257,6.3292,6.3294,6.362,6.3622,0,0,0,6.2712,6.272,6.2775,6.2867,6.2908,6.2883,6.2899,6.3136,6.3155,6.3241,6.3261,6.3294,6.3297,6.3618,6.3621,6.3681,0,0,0,6.2704,6.2699,6.277,6.2761,6.2905,6.3026,6.2917,6.314,6.3166,6.3259,6.3294,6.33,6.3617,6.362,6.3676,6.3712,0,0,0,6.2674,6.2696,6.2729,6.2759,6.2856,6.3023,6.3055,6.3146,6.3178,6.329,6.3301,6.3616,6.3619,6.3671,6.3704,6.3792,0,0,0,6.2634,6.2779,6.2729,6.2898,6.2854,6.306,6.3054,6.3208,6.3311,6.3295,6.3617,6.3621,6.367,6.37,6.3787,6.3861,6.3892,0,0,6.2806,6.2799,6.29,6.2862,6.3072,6.3027,6.3245,6.3356,6.3382,6.3539,6.3547,6.3678,6.3704,6.3791,6.4069,6.4093,0,0,0,6.2947,6.3019,6.3079,6.3178,6.3268,6.3346,6.3426,6.3466,6.3601,6.3461,6.3734,6.3751,6.3802,6.3838,6.3859,6.3903,6.3637,6.3637,6.3636,6.3163,6.319,6.3357,6.341,6.3506,6.3586,6.3664,6.3732,6.3731,6.3795,6.3841,6.4007,6.4049,6.4064,6.411,6.3884,6.3884,6.3884,6.3885,6.3415,6.3519,6.3514,6.3675,6.37,6.3834,6.3915,6.3909,6.4034,6.3975,6.4022,6.3952,6.409,6.4131,6.3889,6.3889,6.3888,6.3888,6.3887,6.3557,6.3612,6.366,6.3804,6.3911,6.3959,6.4079,6.4099,6.4117,6.4164,6.4213,6.4212,6.4211,6.4186,6.4187,6.4187,6.4188,6.4188,6.4189,6.3685,6.3738,6.3839,6.3945,6.4009,6.4096,6.4176,6.4239,6.4313,6.4317,6.4317,6.4307,6.4099,6.4045,6.4198,6.4196,6.4195,6.4194,6.4193,6.3928,6.3876,6.4032,6.4096,6.422,6.4323,6.4346,6.4472,6.4526,6.4584,6.4564,6.4408,6.4401,6.4385,6.434,6.456,6.456,6.456,6.456,6.4046,6.4046,6.4208,6.4309,6.441,6.4447,6.4617,6.4679,6.4735,6.4769,6.474,6.4683,6.4666,6.4669,6.4647,6.4605,6.4887,6.4888,6.4888,6.4196,6.4205,6.4348,6.4405,6.4502,6.4584,6.4744,6.4857,6.4909,6.4902,6.4795,6.4782,6.469,6.4659,6.4648,6.4613,6.4537,0,0]}]]